Regional Weather Roundup
Issued by NWS

Home | Current Version | Previous Version | Graphics & Text | Print | Product List | Glossary Off
Versions: 1 2 3 4 5 6 7 8 9 10 11 12 13 14 15 16 17 18 19 20 21 22 23 24 25 26 27 28 29 30 31 32 33 34 35 36 37 38 39 40 41 42 43 44 45 46 47 48 49 50

000
ASUS43 KLSX 191807
RWRMO

WEATHER SUMMARY FOR MISSOURI
NATIONAL WEATHER SERVICE SPRINGFIELD MO
100 PM CDT SUN APR 19 2015

NOTE: "FAIR" INDICATES FEW OR NO CLOUDS BELOW 12,000 FEET WITH NO
       SIGNIFICANT WEATHER AND/OR OBSTRUCTIONS TO VISIBILITY.
       CURRENT SKY AND/OR WEATHER CONDITIONS ARE NOT AVAILABLE FOR
       CHILLICOTHE AND FARMINGTON.

MOZ001>031-035>038-043-044-053-054-191900-
...NORTHERN AND WESTERN MISSOURI...

CITY           SKY/WX    TMP DP  RH WIND       PRES   REMARKS
KANSAS CTY INT CLOUDY    65  54  67 W12       29.67F
6HR MIN TEMP:  53; 6HR MAX TEMP:  65;

KANSAS C DTWN  CLOUDY    68  54  60 NW9       29.66F
6HR MIN TEMP:  56; 6HR MAX TEMP:  68;

LEE`S SUMMIT   CLOUDY    66  53  63 W12       29.67F
6HR MIN TEMP:  55; 6HR MAX TEMP:  66;

ST JOSEPH      CLOUDY    62  54  74 W16       29.67F
6HR MIN TEMP:  55; 6HR MAX TEMP:  63; 6HR PCP: TRACE;

CHILLICOTHE      N/A     67  59  75 W8        29.62F
6HR MIN TEMP:  59; 6HR MAX TEMP:  70; 6HR PCP:  0.01;

KIRKSVILLE     CLOUDY    69  59  70 S6        29.59F
6HR MIN TEMP:  56; 6HR MAX TEMP:  70; 6HR PCP:  0.29;


$$
MOZ066>068-077>081-088>096-101>105-191900-
...SOUTHWEST MISSOURI...

CITY           SKY/WX    TMP DP  RH WIND       PRES   REMARKS
SPRINGFIELD    CLOUDY    65  52  62 W22G28    29.69F
6HR MIN TEMP:  52; 6HR MAX TEMP:  67;

JOPLIN         MOSUNNY   65  54  67 NW16G24   29.72F
6HR MIN TEMP:  53; 6HR MAX TEMP:  65;


$$
MOZ032>034-039>042-045>050-055>058-069>072-191900-
...CENTRAL MISSOURI...

CITY           SKY/WX    TMP DP  RH WIND       PRES   REMARKS
COLUMBIA       CLOUDY    64  58  80 CALM      29.61F
6HR MIN TEMP:  56; 6HR MAX TEMP:  64; 6HR PCP:  0.88;

JEFFERSON CITY CLOUDY    65  58  78 W5        29.62R
6HR MIN TEMP:  54; 6HR MAX TEMP:  65; 6HR PCP:  0.66;

ROLLA          LGT RAIN  62  59  90 N6        29.60F
6HR MIN TEMP:  58; 6HR MAX TEMP:  62; 6HR PCP:  0.38;

SEDALIA        CLOUDY    66  57  72 W10       29.65F
6HR MIN TEMP:  55; 6HR MAX TEMP:  66;

WHITEMAN AFB   CLOUDY    63  57  82 NW8       29.65F
WARRENSBURG    CLOUDY    64  55  72 W7        29.66F
OSAGE BEACH    CLOUDY    66  57  72 SW7       29.64F

$$
MOZ051-052-059>065-191900-
...EAST CENTRAL MISSOURI...

CITY           SKY/WX    TMP DP  RH WIND       PRES   REMARKS
ST LOUIS INTL  LGT RAIN  64  59  83 E3        29.58F
6HR MIN TEMP:  64; 6HR MAX TEMP:  67; 6HR PCP:  0.12;

SPIRIT OF STL  CLOUDY    67  63  87 CALM      29.56F
6HR MIN TEMP:  59; 6HR MAX TEMP:  67; 6HR PCP:  0.05;

ST CHARLES     LGT RAIN  64  59  83 CALM      29.57F
6HR MIN TEMP:  62; 6HR MAX TEMP:  67; 6HR PCP:  0.08;


$$
MOZ072>076-082>087-097>100-106>115-191900-
...SOUTH CENTRAL AND SOUTHEAST MISSOURI...

CITY           SKY/WX    TMP DP  RH WIND       PRES   REMARKS
CAPE GIRARDEAU PTSUNNY   71  66  84 SW8       29.53F
6HR MIN TEMP:  64; 6HR MAX TEMP:  72; 6HR PCP:  0.16;

FARMINGTON     CLOUDY    64  59  82 NW3       29.61F
6HR MIN TEMP:  61; 6HR MAX TEMP:  64; 6HR PCP:  0.17;

POPLAR BLUFF   CLOUDY    71  61  70 W10G20    29.57S
6HR MIN TEMP:  64; 6HR MAX TEMP:  71;

WEST PLAINS    CLOUDY    70  58  65 W8        29.64F
6HR MIN TEMP:  59; 6HR MAX TEMP:  70; 6HR PCP:  0.07;


$$



USA.gov is the U.S. government's official web portal to all federal, state and local government web resources and services.